This demonstration page uses our WeatherBlox Daily Observations layout. Learn more.

Left ArrowRight Arrow

39.12711, -84.51439

Hourly Observations for March 16, 2021

Temp ( °F °C ) Dew Point ( °F °C ) Humidity (%) Winds ( mph kmh ) Pressure ( in mb ) Visibility ( mi km ) Precip ( " mm )
12:53 am 00:53 Cloudy 39 3.9 35 1.7 86 86 Calm 30.00 1016 10 16 0.00 0.00
1:45 am 01:45 Partly Cloudy 37 2.8 34 1.1 89 89 Calm 29.99 1016 10 16 0.00 0.00
1:53 am 01:53 Mostly Clear 36 2.2 34 1.1 93 93 Calm 29.98 1015 10 16 0.00 0.00
2:53 am 02:53 Mostly Cloudy with Mist and Fog 35 1.7 34 1.1 96 96 Calm 29.96 1014 5 8 0.00 0.00
3:53 am 03:53 Cloudy 40 4.4 36 2.2 86 86 NW 7 11 29.96 1014 10 16 0.00 0.00
4:02 am 04:02 Cloudy 41 5 37 2.8 86 86 NNW 10 17 29.98 1015 10 16 0.00 0.00
4:15 am 04:15 Cloudy with Nearby Thunderstorms 41 5 37 2.8 86 86 N 9 15 29.96 1014 10 16 0.00 0.00
4:30 am 04:30 Cloudy 41 5 37 2.8 86 86 N 7 11 29.97 1015 10 16 0.00 0.00
4:53 am 04:53 Cloudy 40 4.4 37 2.8 89 89 ENE 6 9 29.95 1014 10 16 0.00 0.00
5:53 am 05:53 Cloudy 40 4.4 37 2.8 89 89 E 5 7 29.94 1014 10 16 0.00 0.00
6:26 am 06:26 Cloudy 40 4.4 38 3.3 93 93 NNE 7 11 29.97 1015 10 16 0.00 0.00
6:53 am 06:53 Cloudy with Mist and Fog 40 4.4 38 3.3 93 93 NE 3 6 29.96 1015 3 5 0.00 0.00
7:51 am 07:51 Cloudy with Mist and Fog 39 4 39 4 100 100 Calm 29.95 1014 2 3 0.00 0.00
7:53 am 07:53 Cloudy with Mist and Fog 41 5 39 3.9 93 93 Calm 29.94 1014 2 2 0.00 0.00
8:53 am 08:53 Cloudy with Mist and Fog 41 5 40 4.4 96 96 Calm 29.94 1014 1 1 0.00 0.00
9:53 am 09:53 Cloudy with Mist and Fog 44 6.7 42 5.6 93 93 SW 5 7 29.96 1014 2 3 0.00 0.00
10:53 am 10:53 Cloudy 47 8.3 44 6.7 90 90 SSW 3 6 29.96 1015 7 11 0.00 0.00
11:53 am 11:53 Cloudy 50 10 47 8.3 89 89 SW 5 7 29.95 1014 8 13 0.00 0.00
12:53 pm 12:53 Cloudy 52 11.1 47 8.3 83 83 Calm 29.95 1014 8 13 0.00 0.00
1:53 pm 13:53 Cloudy 55 12.8 49 9.4 80 80 NW 3 6 29.95 1014 7 11 0.00 0.00
2:53 pm 14:53 Cloudy 57 13.9 50 10 78 78 NNW 8 13 29.93 1014 7 11 0.00 0.00
3:53 pm 15:53 Cloudy 56 13.3 49 9.4 77 77 W 9 15 29.95 1014 8 13 0.00 0.00
4:53 pm 16:53 Mostly Cloudy 56 13.3 48 8.9 75 75 NW 6 9 29.96 1014 9 14 0.00 0.00
5:53 pm 17:53 Cloudy 55 12.8 47 8.3 74 74 NW 6 9 29.97 1015 10 16 0.00 0.00
6:44 pm 18:44 Mostly Sunny 55 12.8 47 8.3 74 74 NNW 3 6 29.97 1015 10 16 0.00 0.00
6:53 pm 18:53 Partly Cloudy 55 12.8 46 7.8 72 72 NNW 3 6 29.97 1015 10 16 0.00 0.00
7:53 pm 19:53 Clear 52 11.1 46 7.8 80 80 N 6 9 29.98 1015 10 16 0.00 0.00
8:53 pm 20:53 Clear 46 7.8 44 6.7 93 93 Calm 30.00 1016 9 14 0.00 0.00
9:53 pm 21:53 Clear with Mist and Fog 44 6.7 42 5.6 93 93 Calm 30.01 1016 6 10 0.00 0.00
10:17 pm 22:17 Clear with Mist and Fog 43 6.1 42 5.6 97 97 Calm 30.04 1017 2 2 0.00 0.00
10:24 pm 22:24 Clear with Mist and Fog 42 5.6 41 5 96 96 Calm 30.04 1017 6 10 0.00 0.00
10:53 pm 22:53 Mostly Clear with Mist and Fog 42 5.6 40 4.4 92 92 Calm 30.02 1017 4 6 0.00 0.00
11:08 pm 23:08 Mostly Cloudy with Fog 42 5.6 41 5 96 96 Calm 30.04 1017 0 0 0.00 0.00
11:53 pm 23:53 Mostly Cloudy with Fog 41 5 40 4.4 96 96 Calm 30.03 1017 0 0 0.00 0.00

Powered by AerisWeather